Weather History for Billings, MT

Change the Weather History Date:

Sunday, January 5, 2014

  Actual Average Record
Temperature  
Mean Temperature 2 °F 26 °F  
Max Temperature 8 °F 36 °F 64 °F (2012)
Min Temperature -4 °F 17 °F -17 °F (1982)
Degree Days  
Heating Degree Days 63 39  
Month to date heating degree days 209 195  
Since 1 July heating degree days 3134 3016  
Cooling Degree Days 0 0  
Month to date cooling degree days 0 0  
Year to date cooling degree days 0 0  
Moisture  
Dew Point -8 °F    
Average Humidity 68    
Maximum Humidity 88    
Minimum Humidity 47    
Precipitation  
Precipitation 0.05 in 0.02 in 0.43 in (1980)
Month to date precipitation 0.56 0.08  
Year to date precipitation 0.56 0.08  
Snow  
Snow 0.50 in 0.30 in 6.90 in (2010)
Month to date snowfall 9.3 1.4  
Since 1 July snowfall 44.3 21.3  
Snow Depth 6.00 in    
Sea Level Pressure  
Sea Level Pressure 30.63 in    
Wind  
Wind Speed 15 mph (NW)    
Max Wind Speed 36 mph    
Max Gust Speed 43 mph    
Visibility 7 miles    
Events Snow    
T = Trace of Precipitation, MM = Missing Value Source: NWS Daily Summary

Daily Weather History Graph

Daily Weather History Graph

Search for Another Location

Airport:

Trip Planner

Search our weather history database for the weather conditions in past years. The results will help you decide how hot, cold, wet, or windy it might be!

Date:

Astronomy

Jan. 05, 2014 Rise Set
Actual Time 7:55 AM MST 4:44 PM MST
Civil Twilight 7:21 AM MST 5:18 PM MST
Nautical Twilight 6:43 AM MST 5:56 PM MST
Astronomical Twilight 6:07 AM MST 6:32 PM MST
Moon 10:21 AM MST (1/5) 10:34 PM MST (1/5)
Length of Visible Light 9h 57m
Length of Day
8h 49m
Waxing Crescent, 25% of the Moon is Illuminated
Jan 5
Waxing Crescent
Jan 7
First Quarter
Jan 15
Full
Jan 23
Last Quarter
Jan 30
New

Hourly Weather History & Observations

Time (MST) Temp. Windchill Dew Point Humidity Pressure Visibility Wind Dir Wind Speed Gust Speed Precip Events Conditions
12:53 AM 8.1 °F -3.2 °F 3.9 °F 83% 30.49 in 1.2 mi ENE 6.9 mph - 0.01 in Snow Light Snow
1:53 AM 7.0 °F 0.1 °F 3.9 °F 87% 30.51 in 1.2 mi NE 3.5 mph - 0.02 in Snow Light Snow
2:53 AM 7.0 °F -6.6 °F 3.9 °F 87% 30.54 in 1.2 mi WSW 9.2 mph - 0.01 in Snow Light Snow
3:09 AM 7.0 °F -11.6 °F -0.9 °F 70% 30.33 in 3.0 mi NW 17.3 mph - 0.01 in Snow Light Snow
3:16 AM 6.1 °F -16.8 °F -0.9 °F 73% 30.32 in 1.0 mi NW 27.6 mph 32.2 mph 0.01 in Snow Blowing Snow
3:34 AM 6.1 °F -12.2 °F -0.9 °F 73% 30.34 in 2.5 mi NNW 16.1 mph - 0.01 in Snow Blowing Snow
3:49 AM 5.0 °F -17.9 °F -0.4 °F 78% 30.33 in 1.0 mi NW 26.5 mph 38.0 mph 0.01 in Snow Blowing Snow
3:53 AM 5.0 °F -18.3 °F -0.9 °F 76% 30.55 in 1.0 mi NW 27.6 mph 38.0 mph 0.01 in Snow Blowing Snow
4:53 AM 3.9 °F -19.8 °F -4.0 °F 70% 30.60 in 1.2 mi NNW 27.6 mph 35.7 mph N/A Snow Blowing Snow
5:04 AM 3.9 °F -18.5 °F -6.0 °F 64% 30.38 in 2.0 mi NNW 24.2 mph 38.0 mph N/A Snow Blowing Snow
5:11 AM 3.0 °F -19.3 °F -7.1 °F 63% 30.38 in 3.0 mi NNW 23.0 mph 33.4 mph N/A Snow Blowing Snow
5:53 AM 1.9 °F -22.0 °F -5.1 °F 72% 30.63 in 1.0 mi NNW 26.5 mph 39.1 mph N/A Snow Blowing Snow
6:53 AM -0.0 °F -24.3 °F -8.0 °F 69% 30.69 in 5.0 mi NNW 25.3 mph 32.2 mph N/A Snow Blowing Snow
7:53 AM -2.0 °F -23.3 °F -11.9 °F 63% 30.75 in 10.0 mi NNW 17.3 mph 27.6 mph N/A   Partly Cloudy
8:53 AM -2.9 °F -28.1 °F -11.9 °F 65% 30.77 in 10.0 mi North 25.3 mph 32.2 mph N/A Snow Blowing Snow
9:53 AM -2.9 °F -26.1 °F -14.1 °F 59% 30.81 in 10.0 mi North 20.7 mph - N/A   Partly Cloudy
10:49 AM -2.2 °F -20.7 °F -14.8 °F 55% 30.58 in 10.0 mi NE 12.7 mph - N/A   Partly Cloudy
10:53 AM -2.9 °F -20.8 °F -14.1 °F 59% 30.84 in 10.0 mi ENE 11.5 mph - N/A   Partly Cloudy
11:53 AM -0.9 °F -12.7 °F -17.0 °F 47% 30.82 in 10.0 mi NNE 5.8 mph - N/A   Partly Cloudy
12:53 PM -0.9 °F - -15.0 °F 52% 30.80 in 10.0 mi Calm Calm - N/A   Clear
1:53 PM -0.9 °F -14.1 °F -15.0 °F 52% 30.79 in 10.0 mi East 6.9 mph - N/A   Clear
2:53 PM -0.0 °F -14.2 °F -14.1 °F 52% 30.77 in 10.0 mi South 8.1 mph - N/A   Partly Cloudy
3:53 PM -0.0 °F -14.2 °F -11.9 °F 57% 30.77 in 10.0 mi South 8.1 mph - N/A   Clear
4:53 PM -2.0 °F -13.9 °F -14.1 °F 57% 30.76 in 10.0 mi West 5.8 mph - N/A   Partly Cloudy
5:53 PM -0.9 °F -16.4 °F -11.9 °F 60% 30.74 in 10.0 mi WSW 9.2 mph - N/A   Partly Cloudy
6:53 PM -2.0 °F -20.5 °F -13.0 °F 60% 30.72 in 10.0 mi WSW 12.7 mph - N/A   Clear
7:53 PM -2.9 °F -23.8 °F -11.9 °F 65% 30.69 in 10.0 mi SW 16.1 mph - N/A   Partly Cloudy
8:53 PM -2.0 °F -25.0 °F -11.9 °F 63% 30.67 in 10.0 mi WSW 20.7 mph - N/A   Partly Cloudy
9:53 PM -0.9 °F -23.5 °F -11.0 °F 62% 30.63 in 10.0 mi SW 20.7 mph - N/A   Clear
10:53 PM 1.0 °F -20.9 °F -9.0 °F 63% 30.60 in 10.0 mi WSW 20.7 mph - N/A   Clear
11:53 PM 1.9 °F -20.2 °F -9.0 °F 60% 30.57 in 10.0 mi WSW 21.9 mph - N/A   Clear